| time (UTC) | temp F | wind direction | speed MPH | gust MPH | rain 1hr in | rain 24hr in | rain mn in | humidity % | barometer mb |
| 20260505124436 | 64 | 130 | 2.0 | 0.0 | 0.00 | 0.00 | 0.00 | 68 | 1011.4 |
| 20260505123419 | 64 | 258 | 1.0 | 5.0 | 0.00 | 0.00 | 0.00 | 69 | 1011.4 |
| 20260505122402 | 62 | 178 | 1.0 | 0.0 | 0.00 | 0.00 | 0.00 | 73 | 1011.5 |
| 20260505121344 | 61 | 175 | 1.0 | 0.0 | 0.00 | 0.00 | 0.00 | 75 | 1011.5 |
| 20260505120327 | 60 | 198 | 0.0 | 3.0 | 0.00 | 0.00 | 0.00 | 77 | 1011.4 |
| 20260505115527 | 59 | 166 | 0.0 | 7.0 | 0.00 | 0.00 | 0.00 | 78 | 1011.4 |
| 20260505114228 | 58 | 26 | 0.0 | 0.0 | 0.00 | 0.00 | 0.00 | 80 | 1011.4 |
| 20260505113425 | 56 | 0 | 0.0 | 0.0 | 0.00 | 0.00 | 0.00 | 81 | 1011.3 |
| 20260505112153 | 55 | 0 | 0.0 | 0.0 | 0.00 | 0.00 | 0.00 | 82 | 1011.3 |
| 20260505111136 | 54 | 0 | 0.0 | 0.0 | 0.00 | 0.00 | 0.00 | 83 | 1011.4 |
| 20260505110118 | 54 | 172 | 0.0 | 6.0 | 0.00 | 0.00 | 0.00 | 83 | 1011.4 |
| 20260505102010 | 54 | 0 | 0.0 | 0.0 | 0.00 | 0.00 | 0.00 | 83 | 1011.2 |
| 20260505100953 | 54 | 202 | 0.0 | 4.0 | 0.00 | 0.00 | 0.00 | 82 | 1011.0 |
| 20260505095936 | 54 | 172 | 0.0 | 0.0 | 0.00 | 0.00 | 0.00 | 81 | 1010.9 |
| 20260505095133 | 55 | 172 | 0.0 | 0.0 | 0.00 | 0.00 | 0.00 | 81 | 1010.7 |
| 20260505093902 | 55 | 172 | 0.0 | 0.0 | 0.00 | 0.00 | 0.00 | 81 | 1010.7 |
| 20260505092844 | 55 | 172 | 0.0 | 0.0 | 0.00 | 0.00 | 0.00 | 81 | 1010.6 |
| 20260505091826 | 55 | 172 | 0.0 | 0.0 | 0.00 | 0.00 | 0.00 | 81 | 1010.5 |
| 20260505090806 | 55 | 172 | 0.0 | 0.0 | 0.00 | 0.00 | 0.00 | 80 | 1010.5 |
| 20260505085750 | 56 | 204 | 0.0 | 0.0 | 0.00 | 0.00 | 0.00 | 80 | 1010.5 |
| 20260505084946 | 57 | 204 | 0.0 | 0.0 | 0.00 | 0.00 | 0.00 | 80 | 1010.5 |
| 20260505083931 | 56 | 202 | 0.0 | 0.0 | 0.00 | 0.00 | 0.00 | 80 | 1010.5 |
| 20260505082913 | 56 | 204 | 0.0 | 0.0 | 0.00 | 0.00 | 0.00 | 80 | 1010.6 |
| 20260505081854 | 56 | 212 | 0.0 | 0.0 | 0.00 | 0.00 | 0.00 | 80 | 1010.6 |
| 20260505080623 | 56 | 212 | 0.0 | 0.0 | 0.00 | 0.00 | 0.00 | 79 | 1010.6 |
| 20260505075606 | 55 | 196 | 0.0 | 0.0 | 0.00 | 0.00 | 0.00 | 79 | 1010.5 |
| 20260505074550 | 55 | 194 | 0.0 | 0.0 | 0.00 | 0.00 | 0.00 | 79 | 1010.4 |
| 20260505073533 | 55 | 152 | 0.0 | 0.0 | 0.00 | 0.00 | 0.00 | 78 | 1010.4 |
| 20260505072516 | 55 | 192 | 0.0 | 0.0 | 0.00 | 0.00 | 0.00 | 78 | 1010.3 |
| 20260505071716 | 55 | 192 | 0.0 | 0.0 | 0.00 | 0.00 | 0.00 | 78 | 1010.3 |
| 20260505070443 | 55 | 192 | 0.0 | 0.0 | 0.00 | 0.00 | 0.00 | 77 | 1010.3 |
| 20260505065425 | 55 | 176 | 0.0 | 0.0 | 0.00 | 0.00 | 0.00 | 77 | 1010.3 |
| 20260505064409 | 55 | 180 | 0.0 | 0.0 | 0.00 | 0.00 | 0.00 | 76 | 1010.3 |
| 20260505063350 | 55 | 172 | 0.0 | 0.0 | 0.00 | 0.00 | 0.00 | 76 | 1010.3 |
| 20260505062334 | 56 | 170 | 0.0 | 0.0 | 0.00 | 0.00 | 0.00 | 76 | 1010.3 |
| 20260505061316 | 56 | 170 | 0.0 | 0.0 | 0.00 | 0.00 | 0.00 | 75 | 1010.3 |
| 20260505060259 | 56 | 170 | 0.0 | 0.0 | 0.00 | 0.00 | 0.00 | 75 | 1010.3 |
| 20260505055456 | 56 | 178 | 0.0 | 0.0 | 0.00 | 0.00 | 0.00 | 74 | 1010.4 |
| 20260505054437 | 55 | 180 | 1.0 | 0.0 | 0.00 | 0.00 | 0.00 | 74 | 1010.5 |
| 20260505053204 | 55 | 178 | 1.0 | 0.0 | 0.00 | 0.00 | 0.00 | 73 | 1010.5 |
| 20260505052145 | 55 | 180 | 0.0 | 0.0 | 0.00 | 0.00 | 0.00 | 73 | 1010.5 |
| 20260505051101 | 55 | 182 | 1.0 | 0.0 | 0.00 | 0.00 | 0.00 | 72 | 1010.6 |
| 20260505040850 | 56 | 178 | 1.0 | 0.0 | 0.00 | 0.00 | 0.00 | 70 | 1010.6 |
| 20260505035833 | 56 | 178 | 0.0 | 0.0 | 0.00 | 0.00 | 0.00 | 69 | 1010.6 |
| 20260505034816 | 57 | 178 | 1.0 | 0.0 | 0.00 | 0.00 | 0.00 | 68 | 1010.6 |
| 20260505033759 | 57 | 178 | 1.0 | 0.0 | 0.00 | 0.00 | 0.00 | 68 | 1010.7 |
| 20260505032736 | 57 | 178 | 1.0 | 0.0 | 0.00 | 0.00 | 0.00 | 67 | 1010.7 |
| 20260505031719 | 59 | 178 | 1.0 | 0.0 | 0.00 | 0.00 | 0.00 | 66 | 1010.8 |
| 20260505030703 | 59 | 178 | 1.0 | 0.0 | 0.00 | 0.00 | 0.00 | 65 | 1010.8 |
| 20260505025642 | 59 | 232 | 0.0 | 3.0 | 0.00 | 0.00 | 0.00 | 64 | 1010.9 |
| 20260505024626 | 59 | 170 | 0.0 | 0.0 | 0.00 | 0.00 | 0.00 | 63 | 1010.9 |
| 20260505023823 | 60 | 170 | 1.0 | 0.0 | 0.00 | 0.00 | 0.00 | 62 | 1010.9 |
| 20260505022552 | 60 | 170 | 1.0 | 0.0 | 0.00 | 0.00 | 0.00 | 61 | 1011.0 |
| 20260505021536 | 61 | 170 | 1.0 | 0.0 | 0.00 | 0.00 | 0.00 | 60 | 1011.0 |
| 20260505020519 | 61 | 170 | 1.0 | 0.0 | 0.00 | 0.00 | 0.00 | 59 | 1011.0 |
| 20260505015717 | 60 | 172 | 1.0 | 0.0 | 0.00 | 0.00 | 0.00 | 57 | 1010.9 |
| 20260505014445 | 60 | 172 | 1.0 | 0.0 | 0.00 | 0.00 | 0.00 | 56 | 1010.8 |
| 20260505013427 | 60 | 172 | 1.0 | 0.0 | 0.00 | 0.00 | 0.00 | 55 | 1010.8 |
| 20260505012411 | 60 | 172 | 0.0 | 0.0 | 0.00 | 0.00 | 0.00 | 53 | 1010.6 |
| 20260505011354 | 60 | 172 | 0.0 | 0.0 | 0.00 | 0.00 | 0.00 | 51 | 1010.4 |
| 20260505010337 | 61 | 172 | 1.0 | 0.0 | 0.00 | 0.00 | 0.00 | 50 | 1010.4 |
| 20260505005318 | 62 | 206 | 0.0 | 0.0 | 0.00 | 0.00 | 0.00 | 49 | 1010.3 |
| 20260505004516 | 63 | 206 | 0.0 | 0.0 | 0.00 | 0.00 | 0.00 | 47 | 1010.1 |
| 20260505003238 | 63 | 208 | 0.0 | 0.0 | 0.00 | 0.00 | 0.00 | 47 | 1010.1 |
| 20260505002222 | 64 | 208 | 1.0 | 0.0 | 0.00 | 0.00 | 0.00 | 45 | 1010.0 |
| 20260505001204 | 66 | 208 | 1.0 | 0.0 | 0.00 | 0.00 | 0.00 | 43 | 1009.9 |
| 20260505000147 | 66 | 208 | 1.0 | 0.0 | 0.00 | 0.00 | 0.00 | 42 | 1009.8 |
| 20260504235128 | 67 | 218 | 1.0 | 8.0 | 0.00 | 0.00 | 0.00 | 41 | 1009.6 |
| 20260504234326 | 68 | 218 | 1.0 | 9.0 | 0.00 | 0.00 | 0.00 | 40 | 1009.5 |
| 20260504233055 | 68 | 220 | 1.0 | 9.0 | 0.00 | 0.00 | 0.00 | 39 | 1009.5 |
| 20260504232037 | 69 | 220 | 2.0 | 10.0 | 0.00 | 0.00 | 0.00 | 38 | 1009.4 |
| 20260504231020 | 69 | 220 | 2.0 | 9.0 | 0.00 | 0.00 | 0.00 | 38 | 1009.4 |
| 20260504230003 | 70 | 224 | 2.0 | 7.0 | 0.00 | 0.00 | 0.00 | 37 | 1009.3 |
| 20260504224945 | 70 | 222 | 2.0 | 10.0 | 0.00 | 0.00 | 0.00 | 36 | 1009.3 |
| 20260504223928 | 71 | 224 | 2.0 | 10.0 | 0.00 | 0.00 | 0.00 | 36 | 1009.4 |
| 20260504222912 | 71 | 193 | 2.0 | 0.0 | 0.00 | 0.00 | 0.00 | 36 | 1009.4 |
| 20260504221855 | 71 | 260 | 2.0 | 6.0 | 0.00 | 0.00 | 0.00 | 36 | 1009.4 |
| 20260504220833 | 71 | 212 | 3.0 | 0.0 | 0.00 | 0.00 | 0.00 | 35 | 1009.5 |
| 20260504215817 | 72 | 202 | 2.0 | 11.0 | 0.00 | 0.00 | 0.00 | 34 | 1009.6 |
| 20260504214800 | 72 | 200 | 2.0 | 10.0 | 0.00 | 0.00 | 0.00 | 34 | 1009.6 |
| 20260504213741 | 72 | 204 | 2.0 | 10.0 | 0.00 | 0.00 | 0.00 | 34 | 1009.6 |
| 20260504212724 | 72 | 204 | 2.0 | 10.0 | 0.00 | 0.00 | 0.00 | 34 | 1009.7 |
| 20260504211706 | 72 | 200 | 2.0 | 10.0 | 0.00 | 0.00 | 0.00 | 34 | 1009.7 |
| 20260504210650 | 72 | 200 | 2.0 | 11.0 | 0.00 | 0.00 | 0.00 | 34 | 1009.7 |
| 20260504205634 | 73 | 202 | 2.0 | 11.0 | 0.00 | 0.00 | 0.00 | 34 | 1009.7 |
| 20260504204550 | 73 | 202 | 3.0 | 11.0 | 0.00 | 0.00 | 0.00 | 34 | 1009.7 |
| 20260504203748 | 73 | 200 | 2.0 | 11.0 | 0.00 | 0.00 | 0.00 | 34 | 1009.7 |
| 20260504202730 | 73 | 200 | 3.0 | 11.0 | 0.00 | 0.00 | 0.00 | 33 | 1009.7 |
| 20260504201454 | 73 | 200 | 3.0 | 11.0 | 0.00 | 0.00 | 0.00 | 33 | 1009.8 |
| 20260504200437 | 73 | 200 | 3.0 | 11.0 | 0.00 | 0.00 | 0.00 | 33 | 1009.8 |
| 20260504195634 | 73 | 240 | 3.0 | 10.0 | 0.00 | 0.00 | 0.00 | 33 | 1010.0 |
| 20260504194402 | 73 | 242 | 3.0 | 10.0 | 0.00 | 0.00 | 0.00 | 33 | 1010.1 |
| 20260504193344 | 74 | 238 | 3.0 | 10.0 | 0.00 | 0.00 | 0.00 | 34 | 1010.1 |
| 20260504192328 | 73 | 244 | 3.0 | 10.0 | 0.00 | 0.00 | 0.00 | 34 | 1010.2 |
| 20260504191524 | 73 | 248 | 2.0 | 10.0 | 0.00 | 0.00 | 0.00 | 34 | 1010.4 |
| 20260504190253 | 73 | 246 | 3.0 | 11.0 | 0.00 | 0.00 | 0.00 | 34 | 1010.5 |
| 20260504185236 | 72 | 214 | 3.0 | 0.0 | 0.00 | 0.00 | 0.00 | 34 | 1010.6 |
| 20260504184219 | 73 | 242 | 3.0 | 9.0 | 0.00 | 0.00 | 0.00 | 35 | 1010.8 |
| 20260504183202 | 72 | 266 | 3.0 | 9.0 | 0.00 | 0.00 | 0.00 | 35 | 1010.9 |
| 20260504182146 | 72 | 214 | 3.0 | 11.0 | 0.00 | 0.00 | 0.00 | 35 | 1011.1 |
| 20260504181342 | 72 | 210 | 3.0 | 11.0 | 0.00 | 0.00 | 0.00 | 36 | 1011.2 |
| 20260504180052 | 71 | 167 | 3.0 | 0.0 | 0.00 | 0.00 | 0.00 | 36 | 1011.3 |
| 20260504175003 | 71 | 198 | 3.0 | 0.0 | 0.00 | 0.00 | 0.00 | 35 | 1011.5 |
| 20260504173946 | 71 | 217 | 3.0 | 9.0 | 0.00 | 0.00 | 0.00 | 36 | 1011.6 |
| 20260504172930 | 70 | 233 | 2.0 | 8.0 | 0.00 | 0.00 | 0.00 | 37 | 1011.7 |
| 20260504171913 | 70 | 226 | 3.0 | 10.0 | 0.00 | 0.00 | 0.00 | 37 | 1011.8 |
| 20260504170853 | 69 | 232 | 3.0 | 10.0 | 0.00 | 0.00 | 0.00 | 37 | 1011.9 |
| 20260504150447 | 65 | 230 | 3.0 | 11.0 | 0.00 | 0.00 | 0.00 | 44 | 1013.4 |
| 20260504141319 | 63 | 222 | 3.0 | 10.0 | 0.00 | 0.00 | 0.00 | 50 | 1013.6 |
| 20260504140302 | 62 | 216 | 3.0 | 10.0 | 0.00 | 0.00 | 0.00 | 51 | 1013.6 |